Weather in Chern

Russia / Tula Oblast     53°27′04″N   36°54′28″E
temp.,
°C
wind,
m/s
gust,
m/s
humid.,
%
clouds,
%
prec.,
mm/h
press.,
hPa
HPBL,
m
6 march, sat
sat600:00−10nw228945 0.0 101621
03:00−10wsw129139 0.0 101721
06:00−9wsw2396100 0.1 101632
09:00−8nnw249699 0.3 1018200
12:00−6nnw5789100 0.1 1018512
15:00−5nw468291 0.1 1017810
18:00−9wnw338625 0.0 101830
21:00−11w348712 0.0 101855
7 march, sun
sun700:00−12wsw479034 0.0 1018108
03:00−11sw6129017 0.0 1015249
06:00−9sw8178853 0.0 1012474
09:00−7sw10188677 0.0 1008770
12:00−4sw121993100 0.4 10021186
15:00−2wsw121992100 1.4 10001394
18:00−6nw31078100 2.3 1001449
21:00−10wsw457567 2.3 100269
8 march, mon
mon800:00−9sw6138266 0.0 1001256
03:00−7sw7159382 0.0 999489
06:00−6wsw91594100 0.3 9971057
09:00−10w9158988 0.5 1000925
12:00−7nw91287100 0.3 1003904
15:00−6wnw81181100 0.4 10061157
18:00−8wnw5138491 0.0 1008518
21:00−9w5119477 0.1 1010398
9 march, tue
tue900:00−11wnw349797 0.2 101281
03:00−13nw349690 0.3 101388
06:00−14nw369793 0.1 1015117
09:00−12nw479493 0.1 1016405
12:00−11nw5689100 0.1 1018633
15:00−11nw5788100 0.1 1019636
18:00−14wnw349178 0.0 102066
21:00−15w349057 0.0 102143
10 march, wed
wed1000:00−15sw349280 0.0 102173
03:00−12sw5109490 0.1 1019274
06:00−12wsw51193100 0.1 1018315
09:00−9w61290100 0.2 1018590
12:00−6wnw6992100 0.3 1019854
15:00−10nne5693100 0.7 1020370
18:00−13ene4793100 0.2 1021394
21:00−16ene4894100 0.3 1023224